| time (UTC) | temp F | wind direction | speed MPH | gust MPH | rain 1hr in | rain 24hr in | rain mn in | humidity % | barometer mb |
| 20260904005428 | 81 | 213 | 0.0 | 0.0 | 0.00 | 0.00 | 0.00 | 81 | 1018.6 |
| 20260904005025 | 81 | 0 | 0.0 | 1.0 | 0.00 | 0.00 | 0.00 | 81 | 1016.6 |
| 20260904004548 | 81 | 0 | 0.0 | 1.0 | 0.00 | 0.00 | 0.00 | 80 | 1016.4 |
| 20260904004436 | 82 | 213 | 0.0 | 0.0 | 0.00 | 0.00 | 0.00 | 80 | 1018.4 |
| 20260904004024 | 81 | 0 | 0.0 | 1.0 | 0.00 | 0.00 | 0.00 | 79 | 1016.5 |
| 20260904003523 | 82 | 0 | 0.0 | 1.0 | 0.00 | 0.00 | 0.00 | 78 | 1016.4 |
| 20260904003430 | 82 | 213 | 0.0 | 0.0 | 0.00 | 0.00 | 0.00 | 78 | 1018.4 |
| 20260904003052 | 82 | 0 | 0.0 | 1.0 | 0.00 | 0.00 | 0.00 | 77 | 1016.2 |
| 20260904002529 | 83 | 213 | 0.0 | 1.0 | 0.00 | 0.00 | 0.00 | 76 | 1016.2 |
| 20260904002407 | 83 | 213 | 0.0 | 0.0 | 0.00 | 0.00 | 0.00 | 76 | 1018.2 |
| 20260904002025 | 83 | 0 | 0.0 | 2.0 | 0.00 | 0.00 | 0.00 | 75 | 1016.1 |
| 20260904001550 | 83 | 213 | 0.0 | 2.0 | 0.00 | 0.00 | 0.00 | 75 | 1016.0 |
| 20260904001024 | 84 | 213 | 0.0 | 2.0 | 0.00 | 0.00 | 0.00 | 74 | 1016.0 |
| 20260904000524 | 84 | 213 | 0.0 | 1.0 | 0.00 | 0.00 | 0.00 | 73 | 1016.0 |
| 20260904000329 | 85 | 213 | 0.0 | 0.0 | 0.00 | 0.00 | 0.00 | 73 | 1018.1 |
| 20260904000047 | 85 | 0 | 0.0 | 1.0 | 0.00 | 0.00 | 0.00 | 71 | 1015.9 |
| 20260903235523 | 86 | 0 | 0.0 | 2.0 | 0.00 | 0.00 | 0.00 | 69 | 1015.9 |
| 20260903235347 | 87 | 213 | 0.0 | 0.0 | 0.00 | 0.00 | 0.00 | 67 | 1017.9 |
| 20260903235022 | 87 | 213 | 0.0 | 2.0 | 0.00 | 0.00 | 0.00 | 66 | 1015.8 |
| 20260903234542 | 88 | 213 | 0.0 | 2.0 | 0.00 | 0.00 | 0.00 | 63 | 1015.8 |
| 20260903234024 | 89 | 0 | 0.0 | 3.0 | 0.00 | 0.00 | 0.00 | 61 | 1015.7 |
| 20260903233525 | 90 | 176 | 1.0 | 4.0 | 0.00 | 0.00 | 0.00 | 59 | 1015.8 |
| 20260903233214 | 90 | 187 | 1.0 | 3.0 | 0.00 | 0.00 | 0.00 | 58 | 1017.8 |
| 20260903233053 | 90 | 183 | 1.0 | 4.0 | 0.00 | 0.00 | 0.00 | 58 | 1015.7 |
| 20260903232525 | 91 | 166 | 1.0 | 4.0 | 0.00 | 0.00 | 0.00 | 56 | 1015.6 |
| 20260903232225 | 91 | 193 | 1.0 | 6.0 | 0.00 | 0.00 | 0.00 | 56 | 1017.6 |
| 20260903232025 | 91 | 0 | 1.0 | 5.0 | 0.00 | 0.00 | 0.00 | 56 | 1015.6 |
| 20260903231551 | 91 | 177 | 2.0 | 7.0 | 0.00 | 0.00 | 0.00 | 55 | 1015.7 |
| 20260903231238 | 92 | 169 | 1.0 | 6.0 | 0.00 | 0.00 | 0.00 | 54 | 1017.7 |
| 20260903231024 | 92 | 141 | 1.0 | 7.0 | 0.00 | 0.00 | 0.00 | 54 | 1015.6 |
| 20260903230524 | 92 | 174 | 1.0 | 7.0 | 0.00 | 0.00 | 0.00 | 54 | 1015.5 |
| 20260903230213 | 93 | 98 | 1.0 | 6.0 | 0.00 | 0.00 | 0.00 | 54 | 1017.6 |
| 20260903230047 | 93 | 0 | 1.0 | 7.0 | 0.00 | 0.00 | 0.00 | 53 | 1015.5 |
| 20260903225521 | 93 | 137 | 2.0 | 7.0 | 0.00 | 0.00 | 0.00 | 53 | 1015.5 |
| 20260903225227 | 93 | 143 | 2.0 | 8.0 | 0.00 | 0.00 | 0.00 | 53 | 1017.6 |
| 20260903225024 | 93 | 145 | 1.0 | 10.0 | 0.00 | 0.00 | 0.00 | 52 | 1015.5 |
| 20260903224545 | 93 | 141 | 3.0 | 10.0 | 0.00 | 0.00 | 0.00 | 52 | 1015.4 |
| 20260903224242 | 94 | 149 | 4.0 | 9.0 | 0.00 | 0.00 | 0.00 | 51 | 1017.5 |
| 20260903224029 | 94 | 122 | 3.0 | 10.0 | 0.00 | 0.00 | 0.00 | 51 | 1015.5 |
| 20260903223526 | 94 | 174 | 4.0 | 11.0 | 0.00 | 0.00 | 0.00 | 51 | 1015.5 |
| 20260903223046 | 94 | 203 | 4.0 | 11.0 | 0.00 | 0.00 | 0.00 | 50 | 1015.6 |
| 20260903222523 | 95 | 199 | 4.0 | 11.0 | 0.00 | 0.00 | 0.00 | 50 | 1015.5 |
| 20260903222151 | 95 | 224 | 3.0 | 10.0 | 0.00 | 0.00 | 0.00 | 50 | 1017.6 |
| 20260903222023 | 95 | 187 | 3.0 | 12.0 | 0.00 | 0.00 | 0.00 | 50 | 1015.6 |
| 20260903221548 | 95 | 155 | 4.0 | 12.0 | 0.00 | 0.00 | 0.00 | 49 | 1015.6 |
| 20260903221027 | 95 | 172 | 4.0 | 10.0 | 0.00 | 0.00 | 0.00 | 49 | 1015.7 |
| 20260903220524 | 95 | 108 | 4.0 | 10.0 | 0.00 | 0.00 | 0.00 | 48 | 1015.7 |
| 20260903220054 | 96 | 129 | 4.0 | 13.0 | 0.00 | 0.00 | 0.00 | 48 | 1015.6 |
| 20260903215525 | 96 | 193 | 5.0 | 13.0 | 0.00 | 0.00 | 0.00 | 48 | 1015.7 |
| 20260903215024 | 96 | 128 | 5.0 | 12.0 | 0.00 | 0.00 | 0.00 | 47 | 1015.6 |
| 20260903214913 | 96 | 149 | 4.0 | 11.0 | 0.00 | 0.00 | 0.00 | 47 | 1017.7 |
| 20260903214550 | 96 | 193 | 4.0 | 9.0 | 0.00 | 0.00 | 0.00 | 48 | 1015.7 |
| 20260903214024 | 96 | 122 | 3.0 | 8.0 | 0.00 | 0.00 | 0.00 | 48 | 1015.7 |
| 20260903213853 | 97 | 178 | 3.0 | 10.0 | 0.00 | 0.00 | 0.00 | 47 | 1017.7 |
| 20260903213523 | 97 | 198 | 2.0 | 9.0 | 0.00 | 0.00 | 0.00 | 47 | 1015.7 |
| 20260903213045 | 97 | 142 | 4.0 | 11.0 | 0.00 | 0.00 | 0.00 | 46 | 1015.6 |
| 20260903212909 | 98 | 120 | 4.0 | 10.0 | 0.00 | 0.00 | 0.00 | 45 | 1017.6 |
| 20260903212523 | 98 | 195 | 6.0 | 11.0 | 0.00 | 0.00 | 0.00 | 45 | 1015.6 |
| 20260903212023 | 98 | 207 | 3.0 | 7.0 | 0.00 | 0.00 | 0.00 | 44 | 1015.6 |
| 20260903211900 | 98 | 157 | 2.0 | 5.0 | 0.00 | 0.00 | 0.00 | 43 | 1017.7 |
| 20260903211549 | 98 | 249 | 3.0 | 7.0 | 0.00 | 0.00 | 0.00 | 41 | 1015.6 |
| 20260903211028 | 98 | 224 | 2.0 | 6.0 | 0.00 | 0.00 | 0.00 | 41 | 1015.7 |
| 20260903210525 | 98 | 225 | 2.0 | 8.0 | 0.00 | 0.00 | 0.00 | 42 | 1015.7 |
| 20260903210054 | 98 | 226 | 4.0 | 8.0 | 0.00 | 0.00 | 0.00 | 40 | 1015.6 |
| 20260903205524 | 98 | 273 | 2.0 | 8.0 | 0.00 | 0.00 | 0.00 | 41 | 1015.7 |
| 20260903205027 | 99 | 264 | 1.0 | 8.0 | 0.00 | 0.00 | 0.00 | 40 | 1015.8 |
| 20260903204552 | 99 | 183 | 3.0 | 7.0 | 0.00 | 0.00 | 0.00 | 41 | 1017.9 |
| 20260903204547 | 99 | 144 | 4.0 | 8.0 | 0.00 | 0.00 | 0.00 | 41 | 1015.8 |
| 20260903204026 | 99 | 127 | 2.0 | 8.0 | 0.00 | 0.00 | 0.00 | 40 | 1015.8 |
| 20260903203526 | 99 | 205 | 3.0 | 8.0 | 0.00 | 0.00 | 0.00 | 42 | 1015.9 |
| 20260903203049 | 98 | 132 | 2.0 | 9.0 | 0.00 | 0.00 | 0.00 | 40 | 1015.9 |
| 20260903202525 | 99 | 0 | 3.0 | 9.0 | 0.00 | 0.00 | 0.00 | 40 | 1016.0 |
| 20260903202351 | 99 | 170 | 2.0 | 7.0 | 0.00 | 0.00 | 0.00 | 41 | 1018.1 |
| 20260903202028 | 98 | 194 | 2.0 | 8.0 | 0.00 | 0.00 | 0.00 | 42 | 1016.1 |
| 20260903201553 | 98 | 199 | 2.0 | 8.0 | 0.00 | 0.00 | 0.00 | 42 | 1016.1 |
| 20260903201410 | 99 | 231 | 2.0 | 7.0 | 0.00 | 0.00 | 0.00 | 42 | 1018.1 |
| 20260903201025 | 98 | 175 | 3.0 | 8.0 | 0.00 | 0.00 | 0.00 | 42 | 1016.2 |
| 20260903200524 | 98 | 104 | 2.0 | 8.0 | 0.00 | 0.00 | 0.00 | 41 | 1016.1 |
| 20260903200346 | 99 | 239 | 3.0 | 7.0 | 0.00 | 0.00 | 0.00 | 41 | 1018.3 |
| 20260903200050 | 99 | 233 | 3.0 | 8.0 | 0.00 | 0.00 | 0.00 | 42 | 1016.2 |
| 20260903195524 | 99 | 129 | 3.0 | 8.0 | 0.00 | 0.00 | 0.00 | 42 | 1016.2 |
| 20260903195411 | 99 | 175 | 2.0 | 9.0 | 0.00 | 0.00 | 0.00 | 42 | 1018.2 |
| 20260903195026 | 98 | 170 | 3.0 | 8.0 | 0.00 | 0.00 | 0.00 | 45 | 1016.2 |
| 20260903194545 | 98 | 355 | 2.0 | 12.0 | 0.00 | 0.00 | 0.00 | 44 | 1016.2 |
| 20260903194419 | 99 | 301 | 3.0 | 9.0 | 0.00 | 0.00 | 0.00 | 43 | 1018.2 |
| 20260903194025 | 98 | 167 | 4.0 | 12.0 | 0.00 | 0.00 | 0.00 | 44 | 1016.4 |
| 20260903193524 | 98 | 130 | 4.0 | 12.0 | 0.00 | 0.00 | 0.00 | 43 | 1016.5 |
| 20260903193422 | 99 | 139 | 3.0 | 11.0 | 0.00 | 0.00 | 0.00 | 43 | 1018.5 |
| 20260903193042 | 98 | 169 | 4.0 | 12.0 | 0.00 | 0.00 | 0.00 | 43 | 1016.5 |
| 20260903192524 | 99 | 195 | 5.0 | 12.0 | 0.00 | 0.00 | 0.00 | 45 | 1016.5 |
| 20260903192024 | 98 | 112 | 3.0 | 10.0 | 0.00 | 0.00 | 0.00 | 44 | 1016.6 |
| 20260903191548 | 98 | 189 | 6.0 | 10.0 | 0.00 | 0.00 | 0.00 | 44 | 1016.6 |
| 20260903191338 | 98 | 192 | 3.0 | 10.0 | 0.00 | 0.00 | 0.00 | 47 | 1018.6 |
| 20260903191025 | 97 | 36 | 1.0 | 11.0 | 0.00 | 0.00 | 0.00 | 43 | 1016.6 |
| 20260903190524 | 98 | 287 | 5.0 | 11.0 | 0.00 | 0.00 | 0.00 | 45 | 1016.6 |
| 20260903190358 | 99 | 191 | 3.0 | 10.0 | 0.00 | 0.00 | 0.00 | 45 | 1018.7 |
| 20260903190048 | 98 | 231 | 3.0 | 10.0 | 0.00 | 0.00 | 0.00 | 44 | 1016.6 |
| 20260903185523 | 98 | 280 | 5.0 | 10.0 | 0.00 | 0.00 | 0.00 | 43 | 1016.8 |
| 20260903185348 | 99 | 214 | 3.0 | 7.0 | 0.00 | 0.00 | 0.00 | 44 | 1018.9 |
| 20260903185027 | 99 | 233 | 4.0 | 8.0 | 0.00 | 0.00 | 0.00 | 45 | 1016.7 |
| 20260903184543 | 98 | 177 | 3.0 | 6.0 | 0.00 | 0.00 | 0.00 | 46 | 1016.8 |
| 20260903184352 | 98 | 226 | 1.0 | 9.0 | 0.00 | 0.00 | 0.00 | 45 | 1018.9 |
| 20260903184027 | 97 | 129 | 0.0 | 9.0 | 0.00 | 0.00 | 0.00 | 45 | 1017.0 |
| 20260903183525 | 98 | 183 | 3.0 | 10.0 | 0.00 | 0.00 | 0.00 | 44 | 1017.0 |
| 20260903183333 | 99 | 230 | 4.0 | 9.0 | 0.00 | 0.00 | 0.00 | 45 | 1019.0 |
| 20260903183053 | 98 | 196 | 4.0 | 10.0 | 0.00 | 0.00 | 0.00 | 45 | 1017.0 |
| 20260903182525 | 98 | 149 | 2.0 | 8.0 | 0.00 | 0.00 | 0.00 | 45 | 1017.0 |
| 20260903182332 | 98 | 226 | 3.0 | 6.0 | 0.00 | 0.00 | 0.00 | 47 | 1019.1 |
| 20260903182024 | 98 | 212 | 3.0 | 8.0 | 0.00 | 0.00 | 0.00 | 44 | 1017.1 |
| 20260903181547 | 97 | 137 | 3.0 | 8.0 | 0.00 | 0.00 | 0.00 | 46 | 1017.2 |
| 20260903181323 | 98 | 160 | 2.0 | 6.0 | 0.00 | 0.00 | 0.00 | 45 | 1019.2 |
| 20260903181024 | 97 | 306 | 3.0 | 8.0 | 0.00 | 0.00 | 0.00 | 46 | 1017.2 |
| 20260903180527 | 97 | 0 | 1.0 | 4.0 | 0.00 | 0.00 | 0.00 | 46 | 1017.2 |
| 20260903180331 | 97 | 135 | 1.0 | 3.0 | 0.00 | 0.00 | 0.00 | 47 | 1019.2 |
| 20260903180111 | 95 | 121 | 1.0 | 4.0 | 0.00 | 0.00 | 0.00 | 48 | 1017.3 |
| 20260903175522 | 94 | 115 | 1.0 | 6.0 | 0.00 | 0.00 | 0.00 | 50 | 1017.3 |
| 20260903175024 | 94 | 60 | 1.0 | 6.0 | 0.00 | 0.00 | 0.00 | 49 | 1017.5 |
| 20260903174542 | 95 | 199 | 3.0 | 6.0 | 0.00 | 0.00 | 0.00 | 51 | 1017.5 |
| 20260903174244 | 96 | 168 | 1.0 | 5.0 | 0.00 | 0.00 | 0.00 | 49 | 1019.6 |
| 20260903174023 | 96 | 137 | 2.0 | 6.0 | 0.00 | 0.00 | 0.00 | 49 | 1017.6 |
| 20260903173525 | 96 | 146 | 1.0 | 6.0 | 0.00 | 0.00 | 0.00 | 47 | 1017.5 |
| 20260903173306 | 97 | 201 | 2.0 | 8.0 | 0.00 | 0.00 | 0.00 | 48 | 1019.6 |
| 20260903173049 | 96 | 193 | 2.0 | 5.0 | 0.00 | 0.00 | 0.00 | 49 | 1017.6 |
| 20260903172529 | 95 | 176 | 2.0 | 10.0 | 0.00 | 0.00 | 0.00 | 50 | 1017.7 |
| 20260903172026 | 96 | 100 | 3.0 | 10.0 | 0.00 | 0.00 | 0.00 | 46 | 1017.7 |
| 20260903171551 | 97 | 124 | 5.0 | 10.0 | 0.00 | 0.00 | 0.00 | 46 | 1017.8 |
| 20260903171123 | 96 | 156 | 1.0 | 6.0 | 0.00 | 0.00 | 0.00 | 46 | 1019.9 |
| 20260903171024 | 95 | 80 | 4.0 | 8.0 | 0.00 | 0.00 | 0.00 | 48 | 1017.9 |
| 20260903170528 | 95 | 108 | 1.0 | 4.0 | 0.00 | 0.00 | 0.00 | 49 | 1017.9 |
| 20260903170126 | 96 | 326 | 1.0 | 3.0 | 0.00 | 0.00 | 0.00 | 50 | 1020.0 |
| 20260903170041 | 95 | 240 | 1.0 | 4.0 | 0.00 | 0.00 | 0.00 | 50 | 1018.0 |
| 20260903165525 | 94 | 0 | 1.0 | 4.0 | 0.00 | 0.00 | 0.00 | 50 | 1018.0 |
| 20260903165115 | 96 | 359 | 2.0 | 7.0 | 0.00 | 0.00 | 0.00 | 49 | 1020.1 |
| 20260903165025 | 95 | 16 | 2.0 | 4.0 | 0.00 | 0.00 | 0.00 | 48 | 1018.1 |
| 20260903164559 | 96 | 116 | 2.0 | 8.0 | 0.00 | 0.00 | 0.00 | 48 | 1018.1 |
| 20260903164029 | 95 | 71 | 2.0 | 8.0 | 0.00 | 0.00 | 0.00 | 49 | 1018.2 |
| 20260903163527 | 95 | 90 | 3.0 | 7.0 | 0.00 | 0.00 | 0.00 | 49 | 1018.2 |
| 20260903163047 | 95 | 91 | 3.0 | 7.0 | 0.00 | 0.00 | 0.00 | 49 | 1018.3 |
| 20260903162932 | 96 | 114 | 2.0 | 6.0 | 0.00 | 0.00 | 0.00 | 50 | 1020.4 |
| 20260903162524 | 94 | 124 | 2.0 | 4.0 | 0.00 | 0.00 | 0.00 | 49 | 1018.3 |
| 20260903162024 | 94 | 0 | 2.0 | 5.0 | 0.00 | 0.00 | 0.00 | 51 | 1018.4 |
| 20260903161914 | 95 | 287 | 1.0 | 4.0 | 0.00 | 0.00 | 0.00 | 50 | 1020.4 |
| 20260903161544 | 94 | 315 | 2.0 | 5.0 | 0.00 | 0.00 | 0.00 | 51 | 1018.3 |
| 20260903161023 | 95 | 235 | 3.0 | 5.0 | 0.00 | 0.00 | 0.00 | 50 | 1018.4 |
| 20260903160919 | 95 | 238 | 1.0 | 3.0 | 0.00 | 0.00 | 0.00 | 50 | 1020.5 |
| 20260903160523 | 95 | 297 | 2.0 | 5.0 | 0.00 | 0.00 | 0.00 | 50 | 1018.4 |
| 20260903160050 | 95 | 104 | 1.0 | 7.0 | 0.00 | 0.00 | 0.00 | 50 | 1018.5 |
| 20260903155918 | 95 | 14 | 1.0 | 5.0 | 0.00 | 0.00 | 0.00 | 51 | 1020.5 |
| 20260903155530 | 94 | 359 | 1.0 | 7.0 | 0.00 | 0.00 | 0.00 | 52 | 1018.5 |
| 20260903155025 | 94 | 188 | 2.0 | 7.0 | 0.00 | 0.00 | 0.00 | 50 | 1018.5 |
| 20260903154548 | 94 | 355 | 2.0 | 6.0 | 0.00 | 0.00 | 0.00 | 50 | 1018.6 |
| 20260903154026 | 94 | 112 | 1.0 | 5.0 | 0.00 | 0.00 | 0.00 | 51 | 1018.6 |
| 20260903153821 | 94 | 178 | 1.0 | 3.0 | 0.00 | 0.00 | 0.00 | 50 | 1020.7 |
| 20260903153526 | 94 | 72 | 2.0 | 5.0 | 0.00 | 0.00 | 0.00 | 52 | 1018.6 |
| 20260903153045 | 93 | 120 | 0.0 | 3.0 | 0.00 | 0.00 | 0.00 | 55 | 1018.6 |
| 20260903152828 | 93 | 236 | 0.0 | 4.0 | 0.00 | 0.00 | 0.00 | 57 | 1020.8 |
| 20260903152526 | 92 | 355 | 1.0 | 3.0 | 0.00 | 0.00 | 0.00 | 55 | 1018.8 |
| 20260903152026 | 92 | 341 | 1.0 | 5.0 | 0.00 | 0.00 | 0.00 | 55 | 1018.8 |
| 20260903151828 | 93 | 312 | 1.0 | 4.0 | 0.00 | 0.00 | 0.00 | 56 | 1020.8 |
| 20260903151540 | 92 | 234 | 1.0 | 5.0 | 0.00 | 0.00 | 0.00 | 58 | 1018.8 |
| 20260903151025 | 92 | 260 | 0.0 | 3.0 | 0.00 | 0.00 | 0.00 | 61 | 1018.8 |
| 20260903150758 | 92 | 85 | 0.0 | 0.0 | 0.00 | 0.00 | 0.00 | 59 | 1020.8 |
| 20260903150527 | 91 | 355 | 1.0 | 2.0 | 0.00 | 0.00 | 0.00 | 59 | 1018.8 |
| 20260903150054 | 91 | 347 | 0.0 | 3.0 | 0.00 | 0.00 | 0.00 | 61 | 1018.8 |
| 20260903145730 | 91 | 181 | 1.0 | 4.0 | 0.00 | 0.00 | 0.00 | 62 | 1020.8 |
| 20260903145525 | 91 | 187 | 1.0 | 4.0 | 0.00 | 0.00 | 0.00 | 60 | 1018.7 |
| 20260903145025 | 90 | 0 | 1.0 | 6.0 | 0.00 | 0.00 | 0.00 | 61 | 1018.7 |
| 20260903144755 | 90 | 144 | 2.0 | 4.0 | 0.00 | 0.00 | 0.00 | 61 | 1020.7 |
| 20260903144548 | 90 | 139 | 2.0 | 6.0 | 0.00 | 0.00 | 0.00 | 62 | 1018.8 |
| 20260903144023 | 90 | 122 | 2.0 | 4.0 | 0.00 | 0.00 | 0.00 | 61 | 1018.8 |
| 20260903143815 | 90 | 140 | 1.0 | 3.0 | 0.00 | 0.00 | 0.00 | 62 | 1020.7 |
| 20260903143523 | 89 | 213 | 1.0 | 4.0 | 0.00 | 0.00 | 0.00 | 64 | 1018.7 |
| 20260903143048 | 89 | 210 | 2.0 | 4.0 | 0.00 | 0.00 | 0.00 | 63 | 1018.7 |
| 20260903142828 | 89 | 139 | 1.0 | 3.0 | 0.00 | 0.00 | 0.00 | 65 | 1020.8 |
| 20260903142525 | 88 | 195 | 1.0 | 4.0 | 0.00 | 0.00 | 0.00 | 63 | 1018.8 |
| 20260903142025 | 88 | 140 | 2.0 | 4.0 | 0.00 | 0.00 | 0.00 | 67 | 1018.7 |
| 20260903141805 | 88 | 148 | 1.0 | 2.0 | 0.00 | 0.00 | 0.00 | 68 | 1020.8 |
| 20260903141554 | 88 | 139 | 1.0 | 3.0 | 0.00 | 0.00 | 0.00 | 69 | 1018.8 |
| 20260903141026 | 87 | 215 | 0.0 | 3.0 | 0.00 | 0.00 | 0.00 | 69 | 1018.7 |
| 20260903140524 | 86 | 250 | 1.0 | 2.0 | 0.00 | 0.00 | 0.00 | 72 | 1018.7 |
| 20260903140049 | 85 | 0 | 0.0 | 2.0 | 0.00 | 0.00 | 0.00 | 72 | 1018.7 |
| 20260903135636 | 85 | 277 | 0.0 | 1.0 | 0.00 | 0.00 | 0.00 | 74 | 1020.8 |
| 20260903135525 | 85 | 280 | 1.0 | 2.0 | 0.00 | 0.00 | 0.00 | 74 | 1018.7 |
| 20260903135023 | 84 | 328 | 0.0 | 2.0 | 0.00 | 0.00 | 0.00 | 75 | 1018.7 |
| 20260903134645 | 84 | 8 | 0.0 | 1.0 | 0.00 | 0.00 | 0.00 | 75 | 1020.8 |
| 20260903134545 | 83 | 335 | 0.0 | 2.0 | 0.00 | 0.00 | 0.00 | 75 | 1018.7 |
| 20260903134023 | 83 | 0 | 0.0 | 2.0 | 0.00 | 0.00 | 0.00 | 76 | 1018.7 |
| 20260903133524 | 83 | 0 | 0.0 | 2.0 | 0.00 | 0.00 | 0.00 | 78 | 1018.6 |
| 20260903133042 | 82 | 63 | 0.0 | 2.0 | 0.00 | 0.00 | 0.00 | 79 | 1018.6 |
| 20260903132521 | 81 | 0 | 0.0 | 2.0 | 0.00 | 0.00 | 0.00 | 79 | 1018.8 |
| 20260903132511 | 82 | 353 | 0.0 | 0.0 | 0.00 | 0.00 | 0.00 | 79 | 1020.7 |
| 20260903132024 | 81 | 0 | 0.0 | 2.0 | 0.00 | 0.00 | 0.00 | 81 | 1018.9 |
| 20260903131543 | 80 | 327 | 0.0 | 1.0 | 0.00 | 0.00 | 0.00 | 81 | 1018.8 |
| 20260903131454 | 81 | 327 | 0.0 | 0.0 | 0.00 | 0.00 | 0.00 | 81 | 1020.8 |
| 20260903131026 | 80 | 0 | 0.0 | 3.0 | 0.00 | 0.00 | 0.00 | 82 | 1018.9 |
| 20260903130525 | 79 | 0 | 0.0 | 3.0 | 0.00 | 0.00 | 0.00 | 83 | 1018.9 |
| 20260903130509 | 80 | 33 | 0.0 | 0.0 | 0.00 | 0.00 | 0.00 | 83 | 1020.9 |
| 20260903130111 | 79 | 34 | 1.0 | 3.0 | 0.00 | 0.00 | 0.00 | 84 | 1018.9 |
| 20260903125526 | 78 | 330 | 0.0 | 3.0 | 0.00 | 0.00 | 0.00 | 85 | 1018.9 |
| 20260903125455 | 78 | 330 | 0.0 | 0.0 | 0.00 | 0.00 | 0.00 | 85 | 1020.9 |
| 20260903125025 | 78 | 0 | 0.0 | 3.0 | 0.00 | 0.00 | 0.00 | 86 | 1018.9 |
| 20260903124547 | 77 | 97 | 0.0 | 2.0 | 0.00 | 0.00 | 0.00 | 87 | 1018.9 |
| 20260903124022 | 76 | 97 | 0.0 | 1.0 | 0.00 | 0.00 | 0.00 | 87 | 1018.8 |
| 20260903123522 | 76 | 0 | 0.0 | 1.0 | 0.00 | 0.00 | 0.00 | 87 | 1018.7 |
| 20260903123246 | 76 | 97 | 0.0 | 0.0 | 0.00 | 0.00 | 0.00 | 88 | 1020.8 |
| 20260903123042 | 75 | 97 | 0.0 | 1.0 | 0.00 | 0.00 | 0.00 | 88 | 1018.7 |
| 20260903122524 | 74 | 97 | 0.0 | 2.0 | 0.00 | 0.00 | 0.00 | 88 | 1018.7 |
| 20260903122243 | 74 | 97 | 0.0 | 0.0 | 0.00 | 0.00 | 0.00 | 88 | 1020.8 |
| 20260903122024 | 74 | 97 | 0.0 | 2.0 | 0.00 | 0.00 | 0.00 | 88 | 1018.7 |
| 20260903121553 | 73 | 0 | 0.0 | 0.0 | 0.00 | 0.00 | 0.00 | 88 | 1018.7 |
| 20260903121302 | 73 | 191 | 0.0 | 0.0 | 0.00 | 0.00 | 0.00 | 88 | 1020.8 |
| 20260903121025 | 72 | 0 | 0.0 | 1.0 | 0.00 | 0.00 | 0.00 | 88 | 1018.7 |
| 20260903120524 | 72 | 0 | 0.0 | 1.0 | 0.00 | 0.00 | 0.00 | 88 | 1018.7 |
| 20260903120305 | 72 | 191 | 0.0 | 0.0 | 0.00 | 0.00 | 0.00 | 88 | 1020.7 |
| 20260903120058 | 72 | 0 | 0.0 | 1.0 | 0.00 | 0.00 | 0.00 | 88 | 1018.8 |
| 20260903115524 | 71 | 0 | 0.0 | 1.0 | 0.00 | 0.00 | 0.00 | 88 | 1018.7 |
| 20260903115325 | 72 | 191 | 0.0 | 0.0 | 0.00 | 0.00 | 0.00 | 88 | 1020.7 |
| 20260903115025 | 71 | 0 | 0.0 | 1.0 | 0.00 | 0.00 | 0.00 | 88 | 1018.6 |
| 20260903114551 | 71 | 0 | 0.0 | 0.0 | 0.00 | 0.00 | 0.00 | 88 | 1018.6 |
| 20260903114341 | 71 | 191 | 0.0 | 0.0 | 0.00 | 0.00 | 0.00 | 88 | 1020.5 |
| 20260903114022 | 70 | 0 | 0.0 | 0.0 | 0.00 | 0.00 | 0.00 | 88 | 1018.5 |
| 20260903113524 | 70 | 0 | 0.0 | 0.0 | 0.00 | 0.00 | 0.00 | 88 | 1018.4 |
| 20260903113406 | 71 | 191 | 0.0 | 0.0 | 0.00 | 0.00 | 0.00 | 88 | 1020.3 |
| 20260903113043 | 70 | 0 | 0.0 | 0.0 | 0.00 | 0.00 | 0.00 | 88 | 1018.3 |
| 20260903112527 | 70 | 0 | 0.0 | 0.0 | 0.00 | 0.00 | 0.00 | 88 | 1018.3 |
| 20260903112027 | 70 | 0 | 0.0 | 0.0 | 0.00 | 0.00 | 0.00 | 88 | 1018.2 |
| 20260903111552 | 70 | 0 | 0.0 | 0.0 | 0.00 | 0.00 | 0.00 | 88 | 1018.2 |
| 20260903111206 | 70 | 191 | 0.0 | 0.0 | 0.00 | 0.00 | 0.00 | 88 | 1020.2 |
| 20260903111024 | 70 | 0 | 0.0 | 1.0 | 0.00 | 0.00 | 0.00 | 88 | 1018.1 |
| 20260903110526 | 70 | 0 | 0.0 | 1.0 | 0.00 | 0.00 | 0.00 | 88 | 1018.1 |
| 20260903110214 | 70 | 191 | 0.0 | 0.0 | 0.00 | 0.00 | 0.00 | 88 | 1020.1 |
| 20260903110109 | 69 | 0 | 0.0 | 0.0 | 0.00 | 0.00 | 0.00 | 88 | 1018.0 |
| 20260903105524 | 70 | 0 | 0.0 | 1.0 | 0.00 | 0.00 | 0.00 | 88 | 1017.9 |
| 20260903105214 | 70 | 191 | 0.0 | 0.0 | 0.00 | 0.00 | 0.00 | 88 | 1020.0 |
| 20260903105024 | 70 | 0 | 0.0 | 1.0 | 0.00 | 0.00 | 0.00 | 88 | 1018.0 |
| 20260903104554 | 70 | 0 | 0.0 | 2.0 | 0.00 | 0.00 | 0.00 | 88 | 1017.9 |
| 20260903104228 | 70 | 191 | 0.0 | 0.0 | 0.00 | 0.00 | 0.00 | 88 | 1020.0 |
| 20260903104026 | 70 | 191 | 0.0 | 2.0 | 0.00 | 0.00 | 0.00 | 88 | 1018.0 |
| 20260903103529 | 70 | 191 | 0.0 | 1.0 | 0.00 | 0.00 | 0.00 | 88 | 1018.0 |
| 20260903103052 | 70 | 0 | 0.0 | 1.0 | 0.00 | 0.00 | 0.00 | 88 | 1018.0 |
| 20260903102526 | 70 | 0 | 0.0 | 1.0 | 0.00 | 0.00 | 0.00 | 88 | 1017.9 |
| 20260903102035 | 70 | 191 | 0.0 | 0.0 | 0.00 | 0.00 | 0.00 | 88 | 1020.0 |
| 20260903102024 | 70 | 0 | 0.0 | 1.0 | 0.00 | 0.00 | 0.00 | 88 | 1017.9 |
| 20260903101604 | 70 | 0 | 0.0 | 1.0 | 0.00 | 0.00 | 0.00 | 88 | 1017.9 |
| 20260903101054 | 70 | 191 | 0.0 | 0.0 | 0.00 | 0.00 | 0.00 | 88 | 1020.0 |
| 20260903101026 | 70 | 191 | 0.0 | 1.0 | 0.00 | 0.00 | 0.00 | 88 | 1017.9 |
| 20260903100524 | 70 | 0 | 0.0 | 1.0 | 0.00 | 0.00 | 0.00 | 88 | 1017.9 |
| 20260903100049 | 70 | 0 | 0.0 | 1.0 | 0.00 | 0.00 | 0.00 | 88 | 1017.9 |
| 20260903095525 | 70 | 0 | 0.0 | 1.0 | 0.00 | 0.00 | 0.00 | 88 | 1017.9 |
| 20260903095107 | 71 | 191 | 0.0 | 0.0 | 0.00 | 0.00 | 0.00 | 88 | 1020.0 |
| 20260903095023 | 70 | 0 | 0.0 | 1.0 | 0.00 | 0.00 | 0.00 | 88 | 1017.9 |
| 20260903094553 | 70 | 0 | 0.0 | 1.0 | 0.00 | 0.00 | 0.00 | 88 | 1017.9 |
| 20260903094109 | 71 | 191 | 0.0 | 0.0 | 0.00 | 0.00 | 0.00 | 88 | 1020.0 |
| 20260903094024 | 71 | 0 | 0.0 | 1.0 | 0.00 | 0.00 | 0.00 | 88 | 1018.0 |
| 20260903093526 | 71 | 0 | 0.0 | 2.0 | 0.00 | 0.00 | 0.00 | 88 | 1017.9 |
| 20260903093058 | 71 | 191 | 0.0 | 1.0 | 0.00 | 0.00 | 0.00 | 88 | 1019.9 |
| 20260903093053 | 70 | 191 | 0.0 | 2.0 | 0.00 | 0.00 | 0.00 | 88 | 1017.9 |
| 20260903092526 | 71 | 272 | 0.0 | 1.0 | 0.00 | 0.00 | 0.00 | 88 | 1017.9 |
| 20260903092028 | 71 | 0 | 0.0 | 1.0 | 0.00 | 0.00 | 0.00 | 88 | 1017.9 |
| 20260903091548 | 71 | 0 | 0.0 | 1.0 | 0.00 | 0.00 | 0.00 | 88 | 1017.9 |
| 20260903091024 | 71 | 0 | 0.0 | 2.0 | 0.00 | 0.00 | 0.00 | 88 | 1017.9 |
| 20260903091000 | 72 | 272 | 0.0 | 0.0 | 0.00 | 0.00 | 0.00 | 88 | 1019.9 |
| 20260903090525 | 71 | 0 | 0.0 | 2.0 | 0.00 | 0.00 | 0.00 | 88 | 1017.7 |
| 20260903090051 | 71 | 0 | 0.0 | 2.0 | 0.00 | 0.00 | 0.00 | 88 | 1017.6 |
| 20260903090008 | 71 | 272 | 0.0 | 0.0 | 0.00 | 0.00 | 0.00 | 88 | 1019.8 |
| 20260903085523 | 71 | 329 | 0.0 | 2.0 | 0.00 | 0.00 | 0.00 | 88 | 1017.8 |
| 20260903085022 | 71 | 0 | 0.0 | 1.0 | 0.00 | 0.00 | 0.00 | 88 | 1017.6 |
| 20260903085006 | 71 | 218 | 0.0 | 0.0 | 0.00 | 0.00 | 0.00 | 88 | 1019.7 |
| 20260903084554 | 71 | 0 | 0.0 | 1.0 | 0.00 | 0.00 | 0.00 | 88 | 1017.5 |
| 20260903084025 | 71 | 0 | 0.0 | 1.0 | 0.00 | 0.00 | 0.00 | 88 | 1017.6 |
| 20260903083931 | 72 | 218 | 0.0 | 0.0 | 0.00 | 0.00 | 0.00 | 88 | 1019.6 |
| 20260903083525 | 71 | 0 | 0.0 | 0.0 | 0.00 | 0.00 | 0.00 | 88 | 1017.4 |
| 20260903083050 | 71 | 0 | 0.0 | 0.0 | 0.00 | 0.00 | 0.00 | 88 | 1017.4 |
| 20260903082858 | 72 | 218 | 0.0 | 0.0 | 0.00 | 0.00 | 0.00 | 88 | 1019.4 |
| 20260903082525 | 71 | 0 | 0.0 | 0.0 | 0.00 | 0.00 | 0.00 | 88 | 1017.4 |
| 20260903082024 | 71 | 0 | 0.0 | 0.0 | 0.00 | 0.00 | 0.00 | 88 | 1017.4 |
| 20260903081908 | 72 | 218 | 0.0 | 0.0 | 0.00 | 0.00 | 0.00 | 88 | 1019.4 |
| 20260903081549 | 71 | 0 | 0.0 | 1.0 | 0.00 | 0.00 | 0.00 | 87 | 1017.4 |
| 20260903081024 | 71 | 0 | 0.0 | 1.0 | 0.00 | 0.00 | 0.00 | 87 | 1017.4 |
| 20260903080855 | 72 | 218 | 0.0 | 0.0 | 0.00 | 0.00 | 0.00 | 87 | 1019.5 |
| 20260903080524 | 71 | 0 | 0.0 | 1.0 | 0.00 | 0.00 | 0.00 | 87 | 1017.5 |
| 20260903080048 | 71 | 0 | 0.0 | 0.0 | 0.00 | 0.00 | 0.00 | 88 | 1017.6 |
| 20260903075848 | 72 | 218 | 0.0 | 0.0 | 0.00 | 0.00 | 0.00 | 88 | 1019.5 |
| 20260903075524 | 71 | 0 | 0.0 | 0.0 | 0.00 | 0.00 | 0.00 | 88 | 1017.5 |
| 20260903075022 | 71 | 0 | 0.0 | 0.0 | 0.00 | 0.00 | 0.00 | 88 | 1017.5 |
| 20260903074853 | 72 | 218 | 0.0 | 0.0 | 0.00 | 0.00 | 0.00 | 88 | 1019.5 |
| 20260903074544 | 71 | 0 | 0.0 | 0.0 | 0.00 | 0.00 | 0.00 | 88 | 1017.4 |
| 20260903074028 | 72 | 0 | 0.0 | 1.0 | 0.00 | 0.00 | 0.00 | 87 | 1017.3 |
| 20260903073851 | 72 | 218 | 0.0 | 0.0 | 0.00 | 0.00 | 0.00 | 87 | 1019.4 |
| 20260903073525 | 72 | 0 | 0.0 | 1.0 | 0.00 | 0.00 | 0.00 | 88 | 1017.3 |
| 20260903073049 | 72 | 0 | 0.0 | 1.0 | 0.00 | 0.00 | 0.00 | 87 | 1017.3 |
| 20260903072822 | 72 | 218 | 0.0 | 0.0 | 0.00 | 0.00 | 0.00 | 87 | 1019.3 |
| 20260903072524 | 72 | 0 | 0.0 | 1.0 | 0.00 | 0.00 | 0.00 | 87 | 1017.2 |
| 20260903072034 | 72 | 0 | 0.0 | 1.0 | 0.00 | 0.00 | 0.00 | 87 | 1017.2 |
| 20260903071842 | 72 | 218 | 0.0 | 0.0 | 0.00 | 0.00 | 0.00 | 87 | 1019.1 |
| 20260903071551 | 72 | 0 | 0.0 | 1.0 | 0.00 | 0.00 | 0.00 | 87 | 1017.2 |
| 20260903071023 | 72 | 0 | 0.0 | 0.0 | 0.00 | 0.00 | 0.00 | 87 | 1017.1 |
| 20260903070821 | 72 | 218 | 0.0 | 0.0 | 0.00 | 0.00 | 0.00 | 87 | 1019.1 |
| 20260903070523 | 72 | 0 | 0.0 | 0.0 | 0.00 | 0.00 | 0.00 | 87 | 1017.3 |
| 20260903070041 | 72 | 0 | 0.0 | 0.0 | 0.00 | 0.00 | 0.00 | 87 | 1017.4 |
| 20260903065836 | 72 | 218 | 0.0 | 0.0 | 0.00 | 0.00 | 0.00 | 87 | 1019.5 |
| 20260903065523 | 72 | 0 | 0.0 | 1.0 | 0.00 | 0.00 | 0.00 | 87 | 1017.3 |
| 20260903065024 | 72 | 0 | 0.0 | 2.0 | 0.00 | 0.00 | 0.00 | 87 | 1017.3 |
| 20260903064821 | 72 | 218 | 0.0 | 0.0 | 0.00 | 0.00 | 0.00 | 87 | 1019.4 |
| 20260903064551 | 72 | 0 | 0.0 | 2.0 | 0.00 | 0.00 | 0.00 | 87 | 1017.3 |
| 20260903064027 | 72 | 0 | 0.0 | 2.0 | 0.00 | 0.00 | 0.00 | 87 | 1017.4 |
| 20260903063812 | 73 | 218 | 0.0 | 1.0 | 0.00 | 0.00 | 0.00 | 87 | 1019.6 |
| 20260903063528 | 72 | 0 | 0.0 | 2.0 | 0.00 | 0.00 | 0.00 | 87 | 1017.4 |
| 20260903063047 | 72 | 0 | 0.0 | 2.0 | 0.00 | 0.00 | 0.00 | 87 | 1017.4 |
| 20260903062804 | 73 | 218 | 0.0 | 0.0 | 0.00 | 0.00 | 0.00 | 87 | 1019.4 |
| 20260903062524 | 72 | 218 | 1.0 | 2.0 | 0.00 | 0.00 | 0.00 | 87 | 1017.4 |
| 20260903062027 | 72 | 0 | 0.0 | 0.0 | 0.00 | 0.00 | 0.00 | 87 | 1017.3 |
| 20260903061807 | 73 | 218 | 0.0 | 0.0 | 0.00 | 0.00 | 0.00 | 87 | 1019.4 |
| 20260903061553 | 72 | 0 | 0.0 | 1.0 | 0.00 | 0.00 | 0.00 | 87 | 1017.3 |
| 20260903061025 | 72 | 0 | 0.0 | 2.0 | 0.00 | 0.00 | 0.00 | 87 | 1017.4 |
| 20260903060754 | 73 | 218 | 0.0 | 0.0 | 0.00 | 0.00 | 0.00 | 87 | 1019.4 |
| 20260903060525 | 72 | 218 | 0.0 | 2.0 | 0.00 | 0.00 | 0.00 | 87 | 1017.4 |
| 20260903060054 | 72 | 218 | 1.0 | 2.0 | 0.00 | 0.00 | 0.00 | 87 | 1017.5 |
| 20260903055726 | 73 | 218 | 0.0 | 0.0 | 0.00 | 0.00 | 0.00 | 87 | 1019.5 |
| 20260903055524 | 73 | 0 | 0.0 | 0.0 | 0.00 | 0.00 | 0.00 | 87 | 1017.4 |
| 20260903055025 | 73 | 0 | 0.0 | 0.0 | 0.00 | 0.00 | 0.00 | 87 | 1017.5 |
| 20260903054551 | 73 | 0 | 0.0 | 0.0 | 0.00 | 0.00 | 0.00 | 87 | 1017.5 |
| 20260903054024 | 73 | 0 | 0.0 | 1.0 | 0.00 | 0.00 | 0.00 | 87 | 1017.6 |
| 20260903053604 | 73 | 218 | 0.0 | 0.0 | 0.00 | 0.00 | 0.00 | 87 | 1019.5 |
| 20260903053525 | 73 | 0 | 0.0 | 1.0 | 0.00 | 0.00 | 0.00 | 87 | 1017.5 |
| 20260903053102 | 73 | 0 | 0.0 | 1.0 | 0.00 | 0.00 | 0.00 | 87 | 1017.5 |
| 20260903052602 | 74 | 218 | 0.0 | 0.0 | 0.00 | 0.00 | 0.00 | 87 | 1019.5 |
| 20260903052525 | 73 | 0 | 0.0 | 1.0 | 0.00 | 0.00 | 0.00 | 87 | 1017.5 |
| 20260903052025 | 73 | 218 | 0.0 | 1.0 | 0.00 | 0.00 | 0.00 | 87 | 1017.5 |
| 20260903051556 | 73 | 0 | 0.0 | 1.0 | 0.00 | 0.00 | 0.00 | 87 | 1017.4 |
| 20260903051028 | 73 | 218 | 0.0 | 1.0 | 0.00 | 0.00 | 0.00 | 87 | 1017.5 |
| 20260903050527 | 74 | 0 | 0.0 | 1.0 | 0.00 | 0.00 | 0.00 | 87 | 1017.6 |
| 20260903050435 | 74 | 218 | 0.0 | 0.0 | 0.00 | 0.00 | 0.00 | 87 | 1019.7 |
| 20260903050052 | 74 | 0 | 0.0 | 1.0 | 0.00 | 0.00 | 0.00 | 87 | 1017.6 |
| 20260903045524 | 74 | 0 | 0.0 | 1.0 | 0.00 | 0.00 | 0.00 | 87 | 1017.6 |
| 20260903045500 | 74 | 218 | 0.0 | 0.0 | 0.00 | 0.00 | 0.00 | 87 | 1019.6 |
| 20260903045027 | 74 | 218 | 0.0 | 1.0 | 0.00 | 0.00 | 0.00 | 87 | 1017.6 |
| 20260903044553 | 74 | 0 | 0.0 | 1.0 | 0.00 | 0.00 | 0.00 | 87 | 1017.6 |
| 20260903044024 | 74 | 0 | 0.0 | 1.0 | 0.00 | 0.00 | 0.00 | 87 | 1017.5 |
| 20260903043522 | 74 | 0 | 0.0 | 1.0 | 0.00 | 0.00 | 0.00 | 87 | 1017.5 |
| 20260903043326 | 74 | 218 | 0.0 | 0.0 | 0.00 | 0.00 | 0.00 | 87 | 1019.7 |
| 20260903043051 | 74 | 0 | 0.0 | 1.0 | 0.00 | 0.00 | 0.00 | 87 | 1017.5 |
| 20260903042529 | 74 | 0 | 0.0 | 1.0 | 0.00 | 0.00 | 0.00 | 87 | 1017.4 |
| 20260903042308 | 75 | 218 | 0.0 | 0.0 | 0.00 | 0.00 | 0.00 | 87 | 1019.5 |
| 20260903042024 | 74 | 218 | 0.0 | 1.0 | 0.00 | 0.00 | 0.00 | 87 | 1017.4 |
| 20260903041548 | 75 | 0 | 0.0 | 0.0 | 0.00 | 0.00 | 0.00 | 87 | 1017.5 |
| 20260903041332 | 75 | 218 | 0.0 | 0.0 | 0.00 | 0.00 | 0.00 | 87 | 1019.4 |
| 20260903041025 | 75 | 0 | 0.0 | 1.0 | 0.00 | 0.00 | 0.00 | 87 | 1017.3 |
| 20260903040524 | 75 | 0 | 0.0 | 2.0 | 0.00 | 0.00 | 0.00 | 87 | 1017.3 |
| 20260903040343 | 75 | 218 | 0.0 | 0.0 | 0.00 | 0.00 | 0.00 | 87 | 1019.4 |
| 20260903040047 | 75 | 218 | 0.0 | 2.0 | 0.00 | 0.00 | 0.00 | 87 | 1017.3 |
| 20260903035522 | 75 | 218 | 0.0 | 1.0 | 0.00 | 0.00 | 0.00 | 86 | 1017.4 |
| 20260903035325 | 75 | 218 | 0.0 | 0.0 | 0.00 | 0.00 | 0.00 | 86 | 1019.4 |
| 20260903035025 | 75 | 0 | 0.0 | 1.0 | 0.00 | 0.00 | 0.00 | 86 | 1017.4 |
| 20260903034542 | 75 | 193 | 0.0 | 1.0 | 0.00 | 0.00 | 0.00 | 86 | 1017.6 |
| 20260903034259 | 75 | 193 | 0.0 | 0.0 | 0.00 | 0.00 | 0.00 | 86 | 1019.6 |
| 20260903034023 | 75 | 0 | 0.0 | 0.0 | 0.00 | 0.00 | 0.00 | 86 | 1017.5 |
| 20260903033522 | 75 | 0 | 0.0 | 0.0 | 0.00 | 0.00 | 0.00 | 86 | 1017.8 |
| 20260903033230 | 75 | 193 | 0.0 | 0.0 | 0.00 | 0.00 | 0.00 | 86 | 1019.8 |
| 20260903033101 | 75 | 0 | 0.0 | 1.0 | 0.00 | 0.00 | 0.00 | 86 | 1017.7 |
| 20260903032528 | 75 | 0 | 0.0 | 2.0 | 0.00 | 0.00 | 0.00 | 86 | 1017.7 |
| 20260903032202 | 76 | 193 | 0.0 | 1.0 | 0.00 | 0.00 | 0.00 | 86 | 1019.9 |
| 20260903032025 | 75 | 193 | 0.0 | 2.0 | 0.00 | 0.00 | 0.00 | 86 | 1017.8 |
| 20260903031548 | 75 | 0 | 0.0 | 0.0 | 0.00 | 0.00 | 0.00 | 86 | 1017.8 |
| 20260903031202 | 76 | 193 | 0.0 | 0.0 | 0.00 | 0.00 | 0.00 | 86 | 1019.8 |
| 20260903031028 | 76 | 0 | 0.0 | 0.0 | 0.00 | 0.00 | 0.00 | 86 | 1017.7 |
| 20260903030528 | 76 | 0 | 0.0 | 0.0 | 0.00 | 0.00 | 0.00 | 86 | 1017.7 |
| 20260903030211 | 76 | 193 | 0.0 | 0.0 | 0.00 | 0.00 | 0.00 | 86 | 1019.7 |
| 20260903030054 | 76 | 0 | 0.0 | 0.0 | 0.00 | 0.00 | 0.00 | 86 | 1017.7 |
| 20260903025521 | 76 | 0 | 0.0 | 0.0 | 0.00 | 0.00 | 0.00 | 86 | 1017.9 |
| 20260903025234 | 76 | 193 | 0.0 | 0.0 | 0.00 | 0.00 | 0.00 | 86 | 1019.9 |
| 20260903025023 | 76 | 0 | 0.0 | 0.0 | 0.00 | 0.00 | 0.00 | 86 | 1017.9 |
| 20260903024551 | 76 | 0 | 0.0 | 0.0 | 0.00 | 0.00 | 0.00 | 86 | 1018.0 |
| 20260903024023 | 76 | 0 | 0.0 | 0.0 | 0.00 | 0.00 | 0.00 | 85 | 1018.1 |
| 20260903023528 | 77 | 0 | 0.0 | 1.0 | 0.00 | 0.00 | 0.00 | 85 | 1018.0 |
| 20260903023050 | 77 | 0 | 0.0 | 1.0 | 0.00 | 0.00 | 0.00 | 85 | 1018.0 |
| 20260903023030 | 77 | 193 | 0.0 | 0.0 | 0.00 | 0.00 | 0.00 | 85 | 1020.0 |
| 20260903022522 | 77 | 0 | 0.0 | 1.0 | 0.00 | 0.00 | 0.00 | 85 | 1018.0 |
| 20260903022049 | 78 | 193 | 0.0 | 0.0 | 0.00 | 0.00 | 0.00 | 85 | 1020.2 |
| 20260903022024 | 77 | 0 | 0.0 | 1.0 | 0.00 | 0.00 | 0.00 | 85 | 1018.1 |
| 20260903021553 | 77 | 0 | 0.0 | 1.0 | 0.00 | 0.00 | 0.00 | 85 | 1018.2 |
| 20260903021044 | 78 | 193 | 0.0 | 0.0 | 0.00 | 0.00 | 0.00 | 84 | 1020.3 |
| 20260903021023 | 78 | 0 | 0.0 | 1.0 | 0.00 | 0.00 | 0.00 | 84 | 1018.3 |
| 20260903020528 | 78 | 0 | 0.0 | 1.0 | 0.00 | 0.00 | 0.00 | 84 | 1018.2 |
| 20260903020047 | 78 | 0 | 0.0 | 1.0 | 0.00 | 0.00 | 0.00 | 84 | 1018.2 |
| 20260903020031 | 78 | 193 | 0.0 | 0.0 | 0.00 | 0.00 | 0.00 | 84 | 1020.3 |
| 20260903015524 | 78 | 0 | 0.0 | 1.0 | 0.00 | 0.00 | 0.00 | 84 | 1018.2 |
| 20260903015038 | 79 | 193 | 0.0 | 0.0 | 0.00 | 0.00 | 0.00 | 83 | 1020.2 |
| 20260903015023 | 78 | 0 | 0.0 | 1.0 | 0.00 | 0.00 | 0.00 | 83 | 1018.2 |
| 20260903014549 | 78 | 0 | 0.0 | 2.0 | 0.00 | 0.00 | 0.00 | 82 | 1018.2 |
| 20260903014023 | 79 | 0 | 0.0 | 2.0 | 0.00 | 0.00 | 0.00 | 82 | 1018.3 |
| 20260903014013 | 79 | 193 | 0.0 | 1.0 | 0.00 | 0.00 | 0.00 | 82 | 1020.3 |
| 20260903013523 | 79 | 193 | 0.0 | 2.0 | 0.00 | 0.00 | 0.00 | 82 | 1018.3 |
| 20260903013055 | 79 | 193 | 0.0 | 1.0 | 0.00 | 0.00 | 0.00 | 82 | 1018.3 |
| 20260903012524 | 79 | 0 | 0.0 | 0.0 | 0.00 | 0.00 | 0.00 | 82 | 1018.3 |
| 20260903012024 | 80 | 0 | 0.0 | 1.0 | 0.00 | 0.00 | 0.00 | 82 | 1018.2 |
| 20260903011843 | 80 | 193 | 0.0 | 0.0 | 0.00 | 0.00 | 0.00 | 81 | 1020.3 |
| 20260903011548 | 80 | 0 | 0.0 | 1.0 | 0.00 | 0.00 | 0.00 | 81 | 1018.1 |
| 20260903011024 | 80 | 0 | 0.0 | 1.0 | 0.00 | 0.00 | 0.00 | 80 | 1018.1 |
| 20260903010859 | 80 | 193 | 0.0 | 0.0 | 0.00 | 0.00 | 0.00 | 80 | 1020.2 |
| 20260903010526 | 80 | 193 | 0.0 | 0.0 | 0.00 | 0.00 | 0.00 | 81 | 1018.2 |
| 20260903005909 | 81 | 193 | 0.0 | 0.0 | 0.00 | 0.00 | 0.00 | 81 | 1020.0 |
| 20260903005523 | 81 | 0 | 0.0 | 0.0 | 0.00 | 0.00 | 0.00 | 81 | 1018.0 |